Location: N�rnberg
(49.4471°N, 11.0632°E)
Time: 19:14:55
(UTC+01:00)

Envisat - Pass Details

Date: 26 February 2026
Orbit: 761 x 763 km, 98.4° (Epoch: 6 March)

Event Time Altitude Azimuth Distance (km) Brightness Sun altitude
Rises 04:31:47 0° 4° (N) 3,236 6.5 -25.4°
Reaches altitude 10° 04:34:35 10° 349° (N) 2,306 5.5 -25.0°
Enters shadow 04:36:11 16° 333° (NNW) 1,901 4.9 -24.7°
